Regional Weather Roundup
Issued by NWS Albany, NY

Home | Current Version | Previous Version | Text Only | Print | Product List | Glossary On
Versions: 1 2 3 4 5 6 7 8 9 10 11 12 13 14 15 16 17 18 19 20 21 22 23 24 25 26 27 28 29 30 31 32 33 34 35 36 37 38 39 40 41 42 43 44 45 46 47 48 49 50
000
ASUS41 KALY 190510
RWRALY

NEW YORK STATE HOURLY WEATHER ROUNDUP
NATIONAL WEATHER SERVICE ALBANY NY
100 AM EDT FRI SEP 19 2014

NOTE: "FAIR" INDICATES FEW OR NO CLOUDS BELOW 12,000 FEET WITH NO
SIGNIFICANT WEATHER AND/OR NO OBSTRUCTIONS TO VISIBILITY.

NYZ032-033-038>043-046>054-057>066-NYZ062>081-190600-
EAST


CITY           SKY/WX    TMP DP  RH WIND       PRES   REMARKS
ALBANY         MOCLDY    49  39  68 N8        30.22R
GLENS FALLS    CLEAR     43  37  79 E6        30.23R
POUGHKEEPSIE   CLEAR     54  47  77 N9        30.16R
MONTGOMERY     MOCLDY    54  47  77 NE8       30.16R
WHITE PLAINS   PTCLDY    59  49  69 N10       30.13R
ISLIP          PTCLDY    58  52  80 N6        30.11R
NEW YORK CITY  CLEAR     63  50  62 NE10      30.13R
CENTRAL PARK   CLEAR     63  48  58 NE8G18    30.16R
$$

NYZ005>009-017-018-044>046-055-056-190600-
CENTRAL


CITY           SKY/WX    TMP DP  RH WIND       PRES   REMARKS
FULTON         CLEAR     41  35  79 NE5       30.25R
SYRACUSE       CLEAR     42  39  89 CALM      30.25R
ROME           CLEAR     42  36  79 VRB3      30.25R
ELMIRA         CLEAR     41  40  96 CALM      30.23R
BINGHAMTON     CLEAR     45  42  89 N5        30.21R
MONTICELLO     CLEAR     48  45  87 W3        30.19R
$$

NYZ026>034-041>043-190600-
NORTH


CITY           SKY/WX    TMP DP  RH WIND       PRES   REMARKS
WATERTOWN      CLEAR     37  30  75 E5        30.28R WCI  33
FORT DRUM      NOT AVBL
MASSENA        CLEAR     33  31  92 CALM      30.30R
SARANAC LAKE   CLEAR     26  25  96 CALM      30.22R
PLATTSBURGH    CLEAR     39  32  76 NW7       30.26R WCI  34
$$

NYZ001>004-010>016-019>021-190600-
WEST


CITY           SKY/WX    TMP DP  RH WIND       PRES   REMARKS
NIAGARA FALLS  CLEAR     40  38  93 CALM      30.24R
BUFFALO        PTCLDY    44  41  89 SE3       30.23R
DUNKIRK        PTCLDY    42  41  96 CALM      30.22S FOG
JAMESTOWN      CLEAR     46  43  87 NE3       30.21S
WELLSVILLE     CLOUDY    45  43  93 CALM      30.22S FOG
ROCHESTER      MOCLDY    42  40  92 SW3       30.24R
PENN YAN       CLEAR     45  42  89 CALM      30.24R
$$

             KEY
       WCI = WIND CHILL INDEX
       VSB = VISIBILITY
       HX  = HEAT INDEX
$$


USA.gov is the U.S. government's official web portal to all federal, state and local government web resources and services.